STARLINK-30082 (57509 NORAD) Tracking and Keplerian Element Data

This shows tracking and keplerian element data for the satellite.

Feedback or suggestion? Click here.




ElementValue
Catalog57509
NameSTARLINK-30082
Epoch Orbit438
Epoch Day238.91667824
Epoch Year2023
RAAN12.1832
Inclination43.0005
Eccentricity0.000112
Argument of Perigee267.7682
Mean Anonmoly242.8692
Mean Motion15.5128312
Decay Rate-0.01686938
L11 57509U 23113Q 23238.91667824 -.01686938 00000+0 -31357-1 0 9999
L22 57509 43.0005 12.1832 0001120 267.7682 242.8692 15.51283120 4385



Live tracking and technical data element details for STARLINK-30082 (NORAD 57509). STARLINK-30082 can be tracked NOW for your location showing map with azimuth and elevation plus other details from your city location.







IsCatalogInMostPopularTable: catalog: 57509, numindb: 7
Update: records affected: 1



GetName: 57509 STARLINK-30082

Hit Count: updated at: Tue, 26 Sep 2023 11:42:09 GMT